Simultaneous Nadir Overpasses (SNOs) Predictions

Prediction of SNOs between GOES-17 and METOP-C Satellite Orbit:

Table of predicted SNOs for the next 14.0 days since TLE Epoch: 3/9/2024
Index Date Time (GOES-17) GOES-17 Lat,Lon METOP-C Lat,Lon Distance(km) Time Diff (sec)
1 03/09/2024 04:34:15 0.00,-104.69 0.00,-105.85 128.68 80
2 03/10/2024 04:10:51 0.01,-104.69 0.88,-100.80 443.56 80
3 03/11/2024 16:29:43 -0.01,-104.70 0.15,-105.36 74.95 80
4 03/12/2024 16:11:43 -0.01,-104.71 -0.97,-100.36 494.60 80
5 03/14/2024 04:30:44 0.01,-104.71 -0.03,-104.96 29.19 80
6 03/16/2024 16:28:55 -0.00,-104.71 -0.06,-104.53 21.29 80
7 03/19/2024 04:24:35 0.01,-104.72 0.15,-104.13 67.24 80
8 03/20/2024 16:43:27 -0.01,-104.72 0.88,-108.69 451.85 80
9 03/21/2024 16:25:27 -0.01,-104.73 -0.25,-103.70 117.93 80
